{"data":{"norad_id":63290,"intl_designator":"2025-054C","name":"COSMOS 2587 (RODNIK-S *)","alt_names":[],"object_type":"PAYLOAD","status":"ACTIVE","operator":null,"country":"CIS","launch_date":"2025-03-16","launch_site_code":"PLMSC","launch_vehicle":null,"mission":null,"orbit_class":"UNKNOWN","rcs_meters":null,"size_class":null,"mass_kg":null,"dimensions":null,"purposes":[],"wikipedia_slug":null,"has_3d_model":false,"image_url":null,"decayed_at":null,"tle_current":{"epoch":"2026-09-20T21:03:17.017920Z","epoch_age_seconds":276211,"freshness":"STALE","line1":"1 63290U 25054C   26263.87728030  .00000014  00000+0  26247-4 0  9999","line2":"2 63290  82.5026  19.1671 0015489 160.7198 199.4471 12.42895991 68749","mean_motion":12.42895991,"eccentricity":0.0015489,"inclination_deg":82.5026,"raan_deg":19.1671,"arg_perigee_deg":160.7198,"mean_anomaly_deg":199.4471,"bstar":2.6247e-5,"rev_number":6874,"period_min":115.85844756337,"perigee_km":1482.1568667995,"apogee_km":1506.5442587715,"semimajor_km":7872.4875627855,"source":"CELESTRAK","updated_at":"2026-09-23T09:00:21.955207Z"}}}